Back to catalog

STARLINK-5376

AliveCommunicationsVLEO
NORAD 56142·PAYLOAD·🇺🇸 United States

Launched Mar 29, 2023 from Cape Canaveral Space Force Station

Loading…

Next Passes (next 24 hours)

TLE

FreshSource: CelesTrak SupGP

Epoch: Sep 14, 2026, 15:00 UTC

1 56142C 23046BB  26257.62548611  .00023506  00000+0  85143-3 0  2574
2 56142  43.0021 159.6664 0001634 265.7794 289.3483 15.27564656    16

Track STARLINK-5376 in real time with AllMySat

Download on the App Store